Location: The Rolnick Observatory
(41.1711°N, 73.3275°W)
Time: 21:53:16
(UTC-04:00)

Envisat - Pass Details

Date: 23 February 2019
Orbit: 764 x 766 km, 98.1° (Epoch: 19 October)

Event Time Altitude Azimuth Distance (km) Brightness Sun altitude
Rises 18:38:16 0° 169° (S) 3,216 6.1 -12.3°
Reaches altitude 10° 18:40:34 10° 171° (S) 2,294 5.4 -12.7°
Maximum altitude 18:45:37 78° 257° (WSW) 786 3.2 -13.6°
Drops below altitude 10° 18:50:44 10° 344° (NNW) 2,309 5.7 -14.6°
Sets 18:53:03 0° 346° (NNW) 3,239 6.4 -15.0°
